Location: Hylvaty SDH
(49.9612°N, 16.4057°E)
Time: 12:02:23
(UTC+01:00)

Tiros 1 - Pass Details

Date: 06 October 2020
Orbit: 630 x 663 km, 48.4° (Epoch: 28 October)

Event Time Altitude Azimuth Distance (km) Brightness Sun altitude
Rises 18:43:39 0° 280° (W) 2,971 12.6 -4.4°
Reaches altitude 10° 18:46:30 10° 264° (W) 2,063 11.7 -4.9°
Maximum altitude 18:49:54 20° 218° (SW) 1,524 9.6 -5.4°
Drops below altitude 10° 18:53:19 10° 172° (S) 2,067 9.7 -6.0°
Sets 18:56:11 0° 155° (SSE) 2,979 10.3 -6.4°
